Flag for Greece Weather past 2 weeks in Ilioupoli, Greece

Now
55 °F

Passing clouds.


Feels Like: 53 °F
Forecast: 42 / 51 °F
Wind: 9 mph from North

Location: Eleftherios Venizelos International Airport

Current Time: Dec 21, 2014 at 7:37:33 PM

Latest Report: Dec 21, 2014 at 6:50 PM


Visibility: N/A

Pressure: 30.15 "Hg

Humidity: 44%

Dew point: 34 °F

Location of IlioupoliLocation

Historic Weather in Ilioupoli — Graph

°F

Ilioupoli temperature yesterday

Maximum temperature yesterday: 61 °F (at 11:50 AM)
Minimum temperature yesterday: 37 °F (at 4:20 AM)
Average temperature yesterday: 49 °F

Past Weeks' High & Low Weather Summary

 TemperatureHumidityPressure
High66 °F (Dec 7, 1:20 PM)100% (Dec 21, 1:50 AM)30.33 "Hg (Dec 21, 1:50 AM)
Low37 °F (Dec 14, 3:50 AM)44% (Dec 21, 6:20 PM)29.59 "Hg (Dec 9, 12:20 AM)
Average53 °F79%30.04 "Hg
* Reported Dec 6 6:20 PM — Dec 21 6:20 PM, Ilioupoli, Weather by CustomWeather, © 2014

Note: Actual official high and low records may vary slightly from our data, if they occured in-between our weather recording intervals... More about our weather records

Advertising

Ilioupoli weather history for previous 24 hours

 ConditionsComfort  
Time TempWeatherWind HumidityBarometerVisibility
6:20 PM
Dec 21
55 °FPassing clouds.3 mph44%30.15 "HgN/A
5:50 PM55 °FPassing clouds.3 mph47%30.12 "HgN/A
5:20 PM55 °FPassing clouds.14 mph59%30.12 "HgN/A
4:50 PM55 °FScattered clouds.21 mph63%30.12 "HgN/A
3:50 PM61 °FScattered clouds.6 mph63%30.09 "HgN/A
3:20 PM61 °FScattered clouds.7 mph68%30.07 "HgN/A
2:50 PM64 °FPassing clouds.6 mph60%30.07 "HgN/A
2:20 PM64 °FPassing clouds.5 mph52%30.07 "HgN/A
1:50 PM64 °FPassing clouds.6 mph52%30.07 "HgN/A
1:20 PM64 °FPassing clouds.8 mph52%30.07 "HgN/A
12:50 PM63 °FPassing clouds.2 mph52%30.07 "HgN/A
12:20 PM64 °FPassing clouds.3 mph52%30.07 "HgN/A
11:50 AM63 °FPassing clouds.7 mph56%30.07 "HgN/A
11:20 AM63 °FPassing clouds.5 mph59%30.04 "HgN/A
10:50 AM61 °FPassing clouds.7 mph63%30.07 "HgN/A
10:20 AM59 °FPassing clouds.2 mph68%30.09 "HgN/A
9:50 AM57 °FPassing clouds.2 mph72%30.09 "HgN/A
9:20 AM55 °FPassing clouds.6 mph82%30.09 "HgN/A
8:50 AM50 °FPassing clouds.2 mph82%30.09 "HgN/A
8:20 AM46 °FPassing clouds.1 mph87%30.09 "HgN/A
7:50 AM45 °FPassing clouds.No wind87%30.09 "HgN/A
7:20 AM45 °FPassing clouds.2 mph81%30.07 "HgN/A
6:50 AM45 °FPassing clouds.1 mph81%30.09 "HgN/A
6:20 AM41 °FPassing clouds.1 mph93%30.07 "HgN/A
5:50 AM43 °FPassing clouds.2 mph93%30.09 "HgN/A
5:20 AM41 °FPassing clouds.1 mph93%30.09 "HgN/A
4:20 AM41 °FPassing clouds.2 mph93%30.09 "HgN/A
3:50 AM41 °FPassing clouds.1 mph93%30.09 "HgN/A
3:20 AM41 °FPassing clouds.5 mph93%30.12 "HgN/A
2:50 AM41 °FPassing clouds.6 mph93%30.12 "HgN/A
1:50 AM41 °FPassing clouds.No wind100%30.12 "HgN/A
1:20 AM41 °FPassing clouds.1 mph93%30.12 "HgN/A
12:50 AM43 °FPassing clouds.1 mph87%30.12 "HgN/A
12:20 AM43 °FPassing clouds.3 mph93%30.12 "HgN/A
11:50 PM
Dec 20
43 °FPassing clouds.2 mph87%30.12 "HgN/A
11:20 PM43 °FPassing clouds.2 mph93%30.15 "HgN/A
10:50 PM46 °FPassing clouds.3 mph87%30.15 "HgN/A
10:20 PM46 °FPassing clouds.1 mph82%30.15 "HgN/A
9:50 PM46 °FClear.2 mph82%30.15 "Hg10 mi
9:20 PM48 °FClear.No wind82%30.15 "Hg10 mi
8:50 PM50 °FClear.3 mph82%30.12 "Hg10 mi
8:20 PM50 °FClear.2 mph76%30.12 "Hg10 mi
7:50 PM48 °FClear.2 mph82%30.12 "Hg10 mi
7:20 PM48 °FClear.1 mph82%30.12 "Hg10 mi
Weather by CustomWeather, © 2014

See weather overviewHow to use our weather pages